Location: Góry Miechowskie
(50.3599°N, 20.1803°E)
Time: 07:20:44
(UTC+00:00)

A-11 Canister half - Pass Details

Date: 16 September 2024
Orbit: 1515 x 1684 km, 47.2° (Epoch: 05 October)

Event Time Altitude Azimuth Distance (km) Brightness Sun altitude
Rises 00:41:33 0° 286° (WNW) 4,662 - -30.5°
Reaches altitude 10° 00:45:48 10° 269° (W) 3,682 - -30.1°
Maximum altitude 00:51:26 18° 231° (SW) 3,099 - -29.5°
Drops below altitude 10° 00:57:09 10° 192° (SSW) 3,719 - -28.9°
Sets 01:01:30 0° 175° (S) 4,726 - -28.4°
